This is the latest recevied weather packets stored in our database for station/object N0KWA. If no packets are shown the sender has not sent any weather packets the latest 10 day(s).
| Time | Temp. | Humidity | Pressure | Rain* | Wind** | Luminosity | Snow |
|---|---|---|---|---|---|---|---|
| 1778015667 | 27.22° C | 72% | 1013.6 hPa | 0 mm | - | 27 W/m² | - |
| 1778015363 | 27.22° C | 71% | 1013.8 hPa | 0 mm | - | 26 W/m² | - |
| 1778015063 | 27.22° C | 69% | 1013.6 hPa | 0 mm | - | 30 W/m² | - |
| 1778014757 | 27.78° C | 67% | 1013.7 hPa | 0 mm | - | 85 W/m² | - |
| 1778014455 | 27.78° C | 70% | 1013.5 hPa | 0 mm | - | 159 W/m² | - |
| 1778014152 | 27.22° C | 70% | 1013.7 hPa | 0 mm | - | 51 W/m² | - |
| 1778013849 | 27.22° C | 70% | 1013.6 hPa | 0 mm | - | 48 W/m² | - |
| 1778013547 | 27.22° C | 69% | 1014 hPa | 0 mm | - | 59 W/m² | - |
| 1778013243 | 27.22° C | 69% | 1014 hPa | 0 mm | - | 29 W/m² | - |
| 1778012939 | 27.78° C | 68% | 1014 hPa | 0 mm | - | 69 W/m² | - |
| 1778012636 | 27.78° C | 67% | 1014 hPa | 0 mm | - | 43 W/m² | - |
| 1778012332 | 27.78° C | 67% | 1013.9 hPa | 0 mm | - | 94 W/m² | - |
| 1778012029 | 27.78° C | 67% | 1013.8 hPa | 0 mm | - | 293 W/m² | - |
| 1778011728 | 27.78° C | 65% | 1013.9 hPa | 0 mm | - | 194 W/m² | - |
| 1778011424 | 27.78° C | 64% | 1013.9 hPa | 0 mm | - | 234 W/m² | - |
| 1778011120 | 27.78° C | 67% | 1014 hPa | 0 mm | - | 214 W/m² | - |
| 1778010817 | 27.78° C | 65% | 1014.1 hPa | 0 mm | - | 91 W/m² | - |
| 1778010514 | 27.78° C | 65% | 1014 hPa | 0 mm | - | 172 W/m² | - |
| 1778010212 | 28.33° C | 64% | 1014.1 hPa | 0 mm | - | 132 W/m² | - |
| 1778009907 | 27.78° C | 64% | 1014.2 hPa | 0 mm | - | 69 W/m² | - |
| 1778009605 | 28.33° C | 66% | 1014.1 hPa | 0 mm | - | 86 W/m² | - |
| 1778009302 | 28.33° C | 66% | 1014.2 hPa | 0 mm | - | 130 W/m² | - |
| 1778009001 | 27.78° C | 65% | 1014.2 hPa | 0 mm | - | 243 W/m² | - |
| 1778008697 | 27.78° C | 65% | 1014.2 hPa | 0 mm | - | 50 W/m² | - |
| 1778008396 | 27.78° C | 65% | 1014.6 hPa | 0 mm | - | 46 W/m² | - |
* Rain latest hour (hover to see other rain measurements)
** Current wind speed in m/s (hover to see current wind gust speed)